This is the latest recevied weather packets stored in our database for station/object KB9HUO. If no packets are shown the sender has not sent any weather packets the latest 10 day(s).
| Time | Temp. | Humidity | Pressure | Rain* | Wind** | Luminosity | Snow |
|---|---|---|---|---|---|---|---|
| 1787947145 | 28.89° C | 47% | 1020.7 hPa | 0 mm | - | 46 W/m² | - |
| 1787946844 | 28.89° C | 48% | 1020.7 hPa | 0 mm | - | 56 W/m² | - |
| 1787946542 | 28.89° C | 48% | 1020.7 hPa | 0 mm | - | 95 W/m² | - |
| 1787946238 | 28.89° C | 51% | 1020.7 hPa | 0 mm | - | 55 W/m² | - |
| 1787945937 | 28.89° C | 48% | 1020.8 hPa | 0 mm | - | 51 W/m² | - |
| 1787945633 | 28.89° C | 50% | 1020.7 hPa | 0 mm | - | 49 W/m² | - |
| 1787945328 | 28.89° C | 47% | 1020.7 hPa | 0 mm | - | 58 W/m² | - |
| 1787945023 | 28.89° C | 45% | 1020.8 hPa | 0 mm | - | 58 W/m² | - |
| 1787944720 | 28.89° C | 46% | 1020.9 hPa | 0 mm | - | 131 W/m² | - |
| 1787944416 | 28.89° C | 43% | 1021 hPa | 0 mm | - | 317 W/m² | - |
| 1787944111 | 28.89° C | 51% | 1020.7 hPa | 0 mm | - | 386 W/m² | - |
| 1787943806 | 29.44° C | 48% | 1021.1 hPa | 0 mm | - | 515 W/m² | - |
| 1787943502 | 29.44° C | 47% | 1021 hPa | 0 mm | - | 671 W/m² | - |
| 1787943197 | 29.44° C | 42% | 1020.9 hPa | 0 mm | - | 680 W/m² | - |
| 1787942896 | 29.44° C | 46% | 1021.3 hPa | 0 mm | - | 688 W/m² | - |
| 1787942592 | 29.44° C | 42% | 1021.2 hPa | 0 mm | - | 697 W/m² | - |
| 1787942291 | 29.44° C | 43% | 1021.1 hPa | 0 mm | - | 615 W/m² | - |
| 1787941987 | 29.44° C | 47% | 1021.1 hPa | 0 mm | - | 708 W/m² | - |
| 1787941686 | 29.44° C | 46% | 1021.1 hPa | 0 mm | - | 714 W/m² | - |
| 1787941386 | 29.44° C | 48% | 1021.2 hPa | 0 mm | - | 719 W/m² | - |
| 1787941085 | 29.44° C | 45% | 1021.2 hPa | 0 mm | - | 725 W/m² | - |
| 1787940780 | 28.89° C | 45% | 1021.4 hPa | 0 mm | - | 728 W/m² | - |
| 1787940478 | 29.44° C | 47% | 1021.3 hPa | 0 mm | - | 734 W/m² | - |
| 1787940172 | 29.44° C | 48% | 1021.5 hPa | 0 mm | - | 733 W/m² | - |
| 1787939871 | 29.44° C | 45% | 1021.3 hPa | 0 mm | - | 736 W/m² | - |
* Rain latest hour (hover to see other rain measurements)
** Current wind speed in m/s (hover to see current wind gust speed)